contact:dominique.lefevre@mio.osupytheas.fr, maurice.libes@osupytheas.fr, didier.mallarino@osupytheas.fr
Project:EMSO http://www.emso-fr.org/EMSO-France
Depth: 2436.0 m
Title:EMSO Ligure Ouest : Data MII capteur OXYGEN
DateTime,Latitude,Longitude,Optode-Type,Optode_Serial,Oxygen,Saturation_Oxygen,Temperature
DateTime,Latitude,Longitude,Optode-Type,Optode_Serial,µmol.l-1,%,degC
2019-06-20T00:00:59,42.805,6.029,4330,1995,193.338,59.126,13.288
2019-06-20T00:03:59,42.805,6.029,4330,1995,193.423,59.153,13.289
2019-06-20T00:06:59,42.805,6.029,4330,1995,193.363,59.135,13.290
2019-06-20T00:09:59,42.805,6.029,4330,1995,193.405,59.148,13.289
2019-06-20T00:12:59,42.805,6.029,4330,1995,193.420,59.153,13.289
2019-06-20T00:15:59,42.805,6.029,4330,1995,193.449,59.160,13.289
2019-06-20T00:18:59,42.805,6.029,4330,1995,193.447,59.161,13.289
2019-06-20T00:21:59,42.805,6.029,4330,1995,193.346,59.130,13.290
2019-06-20T00:24:59,42.805,6.029,4330,1995,193.413,59.150,13.290
2019-06-20T00:27:59,42.805,6.029,4330,1995,193.419,59.152,13.289
2019-06-20T00:30:59,42.805,6.029,4330,1995,193.487,59.173,13.290
2019-06-20T00:33:59,42.805,6.029,4330,1995,193.496,59.176,13.289
2019-06-20T00:36:59,42.805,6.029,4330,1995,193.394,59.144,13.289
2019-06-20T00:39:59,42.805,6.029,4330,1995,193.428,59.155,13.290
2019-06-20T00:42:59,42.805,6.029,4330,1995,193.487,59.173,13.289
2019-06-20T00:45:59,42.805,6.029,4330,1995,193.483,59.172,13.290
2019-06-20T00:48:59,42.805,6.029,4330,1995,193.486,59.173,13.290
2019-06-20T00:51:59,42.805,6.029,4330,1995,193.479,59.172,13.291
2019-06-20T00:54:59,42.805,6.029,4330,1995,193.500,59.178,13.290
2019-06-20T00:57:59,42.805,6.029,4330,1995,193.515,59.182,13.290
2019-06-20T01:00:59,42.805,6.029,4330,1995,193.462,59.167,13.291
2019-06-20T01:03:59,42.805,6.029,4330,1995,193.514,59.181,13.289
2019-06-20T01:06:59,42.805,6.029,4330,1995,193.479,59.171,13.290
2019-06-20T01:09:59,42.805,6.029,4330,1995,193.382,59.143,13.291
2019-06-20T01:12:59,42.805,6.029,4330,1995,193.443,59.159,13.289
2019-06-20T01:15:59,42.805,6.029,4330,1995,193.404,59.150,13.292
2019-06-20T01:18:59,42.805,6.029,4330,1995,193.453,59.163,13.290
2019-06-20T01:21:59,42.805,6.029,4330,1995,193.516,59.184,13.291
2019-06-20T01:24:59,42.805,6.029,4330,1995,193.583,59.203,13.290
2019-06-20T01:27:59,42.805,6.029,4330,1995,193.533,59.187,13.290
2019-06-20T01:30:59,42.805,6.029,4330,1995,193.506,59.180,13.291
2019-06-20T01:33:59,42.805,6.029,4330,1995,193.543,59.192,13.291
2019-06-20T01:36:59,42.805,6.029,4330,1995,193.533,59.188,13.290
2019-06-20T01:39:59,42.805,6.029,4330,1995,193.522,59.185,13.291
2019-06-20T01:42:59,42.805,6.029,4330,1995,193.571,59.200,13.291
2019-06-20T01:45:59,42.805,6.029,4330,1995,193.600,59.209,13.291
2019-06-20T01:48:59,42.805,6.029,4330,1995,193.630,59.218,13.290
2019-06-20T01:51:59,42.805,6.029,4330,1995,193.600,59.208,13.290
2019-06-20T01:54:59,42.805,6.029,4330,1995,193.606,59.213,13.292
2019-06-20T01:57:59,42.805,6.029,4330,1995,193.703,59.240,13.290
2019-06-20T02:00:59,42.805,6.029,4330,1995,193.658,59.226,13.290
2019-06-20T02:03:59,42.805,6.029,4330,1995,193.615,59.213,13.290
2019-06-20T02:06:59,42.805,6.029,4330,1995,193.650,59.225,13.291
2019-06-20T02:09:59,42.805,6.029,4330,1995,193.762,59.259,13.291
2019-06-20T02:12:59,42.805,6.029,4330,1995,193.788,59.266,13.290
2019-06-20T02:15:59,42.805,6.029,4330,1995,193.789,59.265,13.289
2019-06-20T02:18:59,42.805,6.029,4330,1995,193.749,59.253,13.290
2019-06-20T02:21:59,42.805,6.029,4330,1995,193.823,59.275,13.289
2019-06-20T02:24:59,42.805,6.029,4330,1995,193.856,59.286,13.290
2019-06-20T02:27:59,42.805,6.029,4330,1995,193.842,59.281,13.289
2019-06-20T02:30:59,42.805,6.029,4330,1995,193.798,59.267,13.289
2019-06-20T02:36:59,42.805,6.029,4330,1995,193.987,59.323,13.288
2019-06-20T02:39:59,42.805,6.029,4330,1995,194.018,59.336,13.290
2019-06-20T02:42:59,42.805,6.029,4330,1995,194.042,59.343,13.290
2019-06-20T02:45:59,42.805,6.029,4330,1995,194.031,59.342,13.291
2019-06-20T02:48:59,42.805,6.029,4330,1995,194.011,59.334,13.290
2019-06-20T02:51:59,42.805,6.029,4330,1995,194.031,59.340,13.290
2019-06-20T02:54:59,42.805,6.029,4330,1995,194.059,59.350,13.291
2019-06-20T02:57:59,42.805,6.029,4330,1995,194.061,59.350,13.290
2019-06-20T03:00:59,42.805,6.029,4330,1995,194.060,59.351,13.291
2019-06-20T03:03:59,42.805,6.029,4330,1995,194.048,59.346,13.290
2019-06-20T03:06:59,42.805,6.029,4330,1995,194.081,59.356,13.291
2019-06-20T03:09:59,42.805,6.029,4330,1995,193.976,59.325,13.291
2019-06-20T03:12:59,42.805,6.029,4330,1995,194.025,59.340,13.292
2019-06-20T03:15:59,42.805,6.029,4330,1995,193.973,59.323,13.291
2019-06-20T03:18:59,42.805,6.029,4330,1995,194.027,59.340,13.291
2019-06-20T03:21:59,42.805,6.029,4330,1995,194.004,59.333,13.291
2019-06-20T03:24:59,42.805,6.029,4330,1995,193.939,59.312,13.290
2019-06-20T03:27:59,42.805,6.029,4330,1995,193.912,59.302,13.289
2019-06-20T03:30:59,42.805,6.029,4330,1995,194.049,59.345,13.290
2019-06-20T03:33:59,42.805,6.029,4330,1995,194.001,59.330,13.289
2019-06-20T03:36:59,42.805,6.029,4330,1995,193.942,59.313,13.290
2019-06-20T03:39:59,42.805,6.029,4330,1995,193.950,59.315,13.289
2019-06-20T03:42:59,42.805,6.029,4330,1995,193.884,59.295,13.290
2019-06-20T03:45:59,42.805,6.029,4330,1995,193.771,59.260,13.289
2019-06-20T03:48:59,42.805,6.029,4330,1995,193.757,59.256,13.290
2019-06-20T03:51:59,42.805,6.029,4330,1995,193.792,59.268,13.291
2019-06-20T03:54:59,42.805,6.029,4330,1995,193.797,59.269,13.290
2019-06-20T03:57:59,42.805,6.029,4330,1995,193.788,59.267,13.291
2019-06-20T04:00:59,42.805,6.029,4330,1995,193.723,59.247,13.291
2019-06-20T04:03:59,42.805,6.029,4330,1995,193.675,59.233,13.291
2019-06-20T04:06:59,42.805,6.029,4330,1995,193.466,59.170,13.292
2019-06-20T04:09:59,42.805,6.029,4330,1995,193.563,59.199,13.292
2019-06-20T04:12:59,42.805,6.029,4330,1995,193.470,59.172,13.293
2019-06-20T04:15:59,42.805,6.029,4330,1995,193.495,59.179,13.292
2019-06-20T04:18:59,42.805,6.029,4330,1995,193.493,59.178,13.292
2019-06-20T04:21:59,42.805,6.029,4330,1995,193.520,59.187,13.292
2019-06-20T04:24:59,42.805,6.029,4330,1995,193.418,59.161,13.296
2019-06-20T04:27:59,42.805,6.029,4330,1995,193.262,59.110,13.294
2019-06-20T04:30:59,42.805,6.029,4330,1995,193.323,59.126,13.292
2019-06-20T04:33:59,42.805,6.029,4330,1995,193.292,59.119,13.294
2019-06-20T04:36:59,42.805,6.029,4330,1995,193.274,59.111,13.292
2019-06-20T04:39:59,42.805,6.029,4330,1995,193.167,59.080,13.294
2019-06-20T04:42:59,42.805,6.029,4330,1995,193.194,59.090,13.295
2019-06-20T04:45:59,42.805,6.029,4330,1995,193.042,59.046,13.296
2019-06-20T04:48:59,42.805,6.029,4330,1995,193.080,59.057,13.296
2019-06-20T04:51:59,42.805,6.029,4330,1995,193.052,59.048,13.295
2019-06-20T04:54:59,42.805,6.029,4330,1995,192.991,59.031,13.297
2019-06-20T04:57:59,42.805,6.029,4330,1995,193.030,59.040,13.295
2019-06-20T05:00:59,42.805,6.029,4330,1995,192.871,58.994,13.296
2019-06-20T05:03:59,42.805,6.029,4330,1995,192.790,58.969,13.296
2019-06-20T05:12:59,42.805,6.029,4330,1995,192.863,58.981,13.289
2019-06-20T05:15:59,42.805,6.029,4330,1995,192.902,58.999,13.293
2019-06-20T05:18:59,42.805,6.029,4330,1995,192.806,58.974,13.297
2019-06-20T05:21:59,42.805,6.029,4330,1995,192.746,58.953,13.295
2019-06-20T05:24:59,42.805,6.029,4330,1995,192.792,58.965,13.293
2019-06-20T05:27:59,42.805,6.029,4330,1995,192.928,59.006,13.293
2019-06-20T05:30:59,42.805,6.029,4330,1995,192.681,58.938,13.298
2019-06-20T05:33:59,42.805,6.029,4330,1995,192.780,58.962,13.294
2019-06-20T05:36:59,42.805,6.029,4330,1995,192.650,58.924,13.295
2019-06-20T05:39:59,42.805,6.029,4330,1995,192.570,58.898,13.294
2019-06-20T05:42:59,42.805,6.029,4330,1995,192.578,58.902,13.295
2019-06-20T05:45:59,42.805,6.029,4330,1995,192.640,58.923,13.296
2019-06-20T05:48:59,42.805,6.029,4330,1995,192.595,58.910,13.297
2019-06-20T05:51:59,42.805,6.029,4330,1995,192.347,58.838,13.300
2019-06-20T05:54:59,42.805,6.029,4330,1995,192.340,58.831,13.296
2019-06-20T05:57:59,42.805,6.029,4330,1995,192.418,58.855,13.297
2019-06-20T06:00:59,42.805,6.029,4330,1995,192.464,58.868,13.296
2019-06-20T06:03:59,42.805,6.029,4330,1995,192.360,58.836,13.295
2019-06-20T06:06:59,42.805,6.029,4330,1995,192.196,58.792,13.300
2019-06-20T06:09:59,42.805,6.029,4330,1995,192.104,58.762,13.299
2019-06-20T06:12:59,42.805,6.029,4330,1995,192.022,58.736,13.298
2019-06-20T06:15:59,42.805,6.029,4330,1995,192.041,58.741,13.297
2019-06-20T06:18:59,42.805,6.029,4330,1995,192.061,58.749,13.299
2019-06-20T06:21:59,42.805,6.029,4330,1995,191.857,58.685,13.298
2019-06-20T06:24:59,42.805,6.029,4330,1995,191.950,58.715,13.299
2019-06-20T06:27:59,42.805,6.029,4330,1995,191.953,58.714,13.298
2019-06-20T06:30:59,42.805,6.029,4330,1995,191.851,58.684,13.298
2019-06-20T06:33:59,42.805,6.029,4330,1995,191.719,58.641,13.296
2019-06-20T06:36:59,42.805,6.029,4330,1995,191.968,58.716,13.295
2019-06-20T06:39:59,42.805,6.029,4330,1995,192.319,58.823,13.295
2019-06-20T06:42:59,42.805,6.029,4330,1995,192.227,58.795,13.295
2019-06-20T06:45:59,42.805,6.029,4330,1995,192.279,58.812,13.296
2019-06-20T06:48:59,42.805,6.029,4330,1995,192.050,58.743,13.297
2019-06-20T06:51:59,42.805,6.029,4330,1995,191.927,58.707,13.298
2019-06-20T06:54:59,42.805,6.029,4330,1995,191.743,58.654,13.300
2019-06-20T06:57:59,42.805,6.029,4330,1995,191.636,58.617,13.297
2019-06-20T07:00:59,42.805,6.029,4330,1995,191.594,58.607,13.299
2019-06-20T07:03:59,42.805,6.029,4330,1995,191.492,58.574,13.298
2019-06-20T07:06:59,42.805,6.029,4330,1995,191.491,58.574,13.298
2019-06-20T07:09:59,42.805,6.029,4330,1995,191.608,58.611,13.299
2019-06-20T07:12:59,42.805,6.029,4330,1995,191.450,58.565,13.301
2019-06-20T07:15:59,42.805,6.029,4330,1995,191.264,58.509,13.302
2019-06-20T07:18:59,42.805,6.029,4330,1995,191.303,58.521,13.301
2019-06-20T07:21:59,42.805,6.029,4330,1995,191.325,58.528,13.302
2019-06-20T07:24:59,42.805,6.029,4330,1995,191.195,58.491,13.304
2019-06-20T07:27:59,42.805,6.029,4330,1995,191.167,58.477,13.300
2019-06-20T07:30:59,42.805,6.029,4330,1995,191.041,58.438,13.299
2019-06-20T07:33:59,42.805,6.029,4330,1995,190.942,58.409,13.301
2019-06-20T07:36:59,42.805,6.029,4330,1995,191.015,58.431,13.300
2019-06-20T07:39:59,42.805,6.029,4330,1995,191.190,58.488,13.303
2019-06-20T07:45:59,42.805,6.029,4330,1995,191.076,58.442,13.294
2019-06-20T07:48:59,42.805,6.029,4330,1995,191.032,58.428,13.294
2019-06-20T07:51:59,42.805,6.029,4330,1995,191.149,58.468,13.297
2019-06-20T07:54:59,42.805,6.029,4330,1995,191.087,58.454,13.301
2019-06-20T07:57:59,42.805,6.029,4330,1995,191.159,58.472,13.298
2019-06-20T08:00:59,42.805,6.029,4330,1995,191.149,58.471,13.300
2019-06-20T08:03:59,42.805,6.029,4330,1995,191.069,58.453,13.305
2019-06-20T08:06:59,42.805,6.029,4330,1995,191.157,58.479,13.304
2019-06-20T08:09:59,42.805,6.029,4330,1995,191.201,58.493,13.304
2019-06-20T08:12:59,42.805,6.029,4330,1995,190.974,58.420,13.301
2019-06-20T08:15:59,42.805,6.029,4330,1995,191.032,58.438,13.302
2019-06-20T08:18:59,42.805,6.029,4330,1995,191.071,58.454,13.305
2019-06-20T08:21:59,42.805,6.029,4330,1995,190.981,58.430,13.307
2019-06-20T08:24:59,42.805,6.029,4330,1995,190.821,58.375,13.303
2019-06-20T08:27:59,42.805,6.029,4330,1995,190.541,58.293,13.306
2019-06-20T08:30:59,42.805,6.029,4330,1995,190.611,58.316,13.307
2019-06-20T08:33:59,42.805,6.029,4330,1995,190.695,58.338,13.304
2019-06-20T08:36:59,42.805,6.029,4330,1995,190.602,58.313,13.306
2019-06-20T08:39:59,42.805,6.029,4330,1995,190.484,58.272,13.303
2019-06-20T08:42:59,42.805,6.029,4330,1995,190.366,58.234,13.301
2019-06-20T08:45:59,42.805,6.029,4330,1995,190.991,58.425,13.301
2019-06-20T08:48:59,42.805,6.029,4330,1995,190.999,58.434,13.306
2019-06-20T08:51:59,42.805,6.029,4330,1995,191.098,58.456,13.300
2019-06-20T08:54:59,42.805,6.029,4330,1995,191.146,58.474,13.303
2019-06-20T08:57:59,42.805,6.029,4330,1995,191.025,58.439,13.304
2019-06-20T09:00:59,42.805,6.029,4330,1995,190.736,58.349,13.303
2019-06-20T09:03:59,42.805,6.029,4330,1995,190.768,58.357,13.301
2019-06-20T09:06:59,42.805,6.029,4330,1995,191.012,58.432,13.302
2019-06-20T09:09:59,42.805,6.029,4330,1995,191.127,58.468,13.302
2019-06-20T09:12:59,42.805,6.029,4330,1995,191.086,58.457,13.304
2019-06-20T09:15:59,42.805,6.029,4330,1995,191.114,58.465,13.303
2019-06-20T09:18:59,42.805,6.029,4330,1995,191.137,58.469,13.301
2019-06-20T09:21:59,42.805,6.029,4330,1995,191.058,58.446,13.302
2019-06-20T09:24:59,42.805,6.029,4330,1995,191.192,58.484,13.299
2019-06-20T09:27:59,42.805,6.029,4330,1995,191.255,58.501,13.298
2019-06-20T09:30:59,42.805,6.029,4330,1995,191.490,58.574,13.299
2019-06-20T09:33:59,42.805,6.029,4330,1995,191.640,58.620,13.299
2019-06-20T09:36:59,42.805,6.029,4330,1995,191.766,58.658,13.298
2019-06-20T09:39:59,42.805,6.029,4330,1995,191.817,58.672,13.297
2019-06-20T09:42:59,42.805,6.029,4330,1995,191.863,58.686,13.297
2019-06-20T09:45:59,42.805,6.029,4330,1995,191.932,58.707,13.297
2019-06-20T09:48:59,42.805,6.029,4330,1995,191.874,58.688,13.296
2019-06-20T09:51:59,42.805,6.029,4330,1995,191.836,58.676,13.295
2019-06-20T09:54:59,42.805,6.029,4330,1995,191.872,58.688,13.297
2019-06-20T09:57:59,42.805,6.029,4330,1995,191.899,58.696,13.296
2019-06-20T10:00:59,42.805,6.029,4330,1995,191.905,58.698,13.296
2019-06-20T10:03:59,42.805,6.029,4330,1995,191.887,58.691,13.295
2019-06-20T10:06:59,42.805,6.029,4330,1995,191.897,58.693,13.295
2019-06-20T10:09:59,42.805,6.029,4330,1995,191.901,58.695,13.295
2019-06-20T10:12:59,42.805,6.029,4330,1995,191.919,58.699,13.294
2019-06-20T10:15:59,42.805,6.029,4330,1995,191.959,58.709,13.292
2019-06-20T10:21:59,42.805,6.029,4330,1995,192.021,58.724,13.289
2019-06-20T10:24:59,42.805,6.029,4330,1995,192.126,58.763,13.294
2019-06-20T10:27:59,42.805,6.029,4330,1995,192.095,58.755,13.296
2019-06-20T10:30:59,42.805,6.029,4330,1995,192.122,58.763,13.295
2019-06-20T10:33:59,42.805,6.029,4330,1995,192.183,58.781,13.295
2019-06-20T10:36:59,42.805,6.029,4330,1995,192.277,58.810,13.295
2019-06-20T10:39:59,42.805,6.029,4330,1995,192.285,58.811,13.294
2019-06-20T10:42:59,42.805,6.029,4330,1995,192.236,58.799,13.296
2019-06-20T10:45:59,42.805,6.029,4330,1995,192.342,58.830,13.295
2019-06-20T10:48:59,42.805,6.029,4330,1995,192.269,58.808,13.295
2019-06-20T10:51:59,42.805,6.029,4330,1995,192.252,58.802,13.295
2019-06-20T10:54:59,42.805,6.029,4330,1995,192.308,58.819,13.295
2019-06-20T10:57:59,42.805,6.029,4330,1995,192.227,58.793,13.293
2019-06-20T11:00:59,42.805,6.029,4330,1995,192.299,58.814,13.293
2019-06-20T11:03:59,42.805,6.029,4330,1995,192.215,58.790,13.294
2019-06-20T11:06:59,42.805,6.029,4330,1995,192.284,58.811,13.294
2019-06-20T11:09:59,42.805,6.029,4330,1995,192.186,58.779,13.293
2019-06-20T11:12:59,42.805,6.029,4330,1995,192.313,58.818,13.293
2019-06-20T11:15:59,42.805,6.029,4330,1995,192.288,58.809,13.292
2019-06-20T11:18:59,42.805,6.029,4330,1995,192.300,58.813,13.292
2019-06-20T11:21:59,42.805,6.029,4330,1995,192.399,58.843,13.292
2019-06-20T11:24:59,42.805,6.029,4330,1995,192.470,58.866,13.292
2019-06-20T11:27:59,42.805,6.029,4330,1995,192.460,58.862,13.292
2019-06-20T11:30:59,42.805,6.029,4330,1995,192.453,58.860,13.292
2019-06-20T11:33:59,42.805,6.029,4330,1995,192.648,58.919,13.291
2019-06-20T11:36:59,42.805,6.029,4330,1995,192.658,58.921,13.291
2019-06-20T11:39:59,42.805,6.029,4330,1995,192.691,58.932,13.292
2019-06-20T11:42:59,42.805,6.029,4330,1995,192.578,58.898,13.292
2019-06-20T11:45:59,42.805,6.029,4330,1995,192.546,58.890,13.293
2019-06-20T11:48:59,42.805,6.029,4330,1995,192.438,58.856,13.292
2019-06-20T11:51:59,42.805,6.029,4330,1995,192.374,58.837,13.292
2019-06-20T11:54:59,42.805,6.029,4330,1995,192.406,58.845,13.291
2019-06-20T11:57:59,42.805,6.029,4330,1995,192.567,58.894,13.292
2019-06-20T12:00:59,42.805,6.029,4330,1995,192.559,58.892,13.292
2019-06-20T12:03:59,42.805,6.029,4330,1995,192.664,58.925,13.292
2019-06-20T12:06:59,42.805,6.029,4330,1995,192.574,58.898,13.292
2019-06-20T12:09:59,42.805,6.029,4330,1995,192.598,58.905,13.292
2019-06-20T12:12:59,42.805,6.029,4330,1995,192.557,58.893,13.293
2019-06-20T12:15:59,42.805,6.029,4330,1995,192.573,58.899,13.294
2019-06-20T12:18:59,42.805,6.029,4330,1995,192.448,58.862,13.295
2019-06-20T12:21:59,42.805,6.029,4330,1995,192.413,58.850,13.293
2019-06-20T12:24:59,42.805,6.029,4330,1995,192.399,58.847,13.295
2019-06-20T12:27:59,42.805,6.029,4330,1995,192.348,58.830,13.294
2019-06-20T12:30:59,42.805,6.029,4330,1995,192.506,58.881,13.295
2019-06-20T12:33:59,42.805,6.029,4330,1995,192.572,58.901,13.296
2019-06-20T12:36:59,42.805,6.029,4330,1995,192.503,58.879,13.294
2019-06-20T12:39:59,42.805,6.029,4330,1995,192.410,58.850,13.294
2019-06-20T12:42:59,42.805,6.029,4330,1995,192.553,58.894,13.295
2019-06-20T12:45:59,42.805,6.029,4330,1995,192.537,58.889,13.294
2019-06-20T12:48:59,42.805,6.029,4330,1995,192.531,58.888,13.295
2019-06-20T12:57:59,42.805,6.029,4330,1995,192.397,58.840,13.290
2019-06-20T13:00:59,42.805,6.029,4330,1995,192.366,58.834,13.292
2019-06-20T13:03:59,42.805,6.029,4330,1995,192.377,58.838,13.293
2019-06-20T13:06:59,42.805,6.029,4330,1995,192.487,58.872,13.293
2019-06-20T13:09:59,42.805,6.029,4330,1995,192.587,58.903,13.293
2019-06-20T13:12:59,42.805,6.029,4330,1995,192.575,58.901,13.295
2019-06-20T13:15:59,42.805,6.029,4330,1995,192.616,58.912,13.294
2019-06-20T13:18:59,42.805,6.029,4330,1995,192.471,58.868,13.293
2019-06-20T13:21:59,42.805,6.029,4330,1995,192.280,58.812,13.296
2019-06-20T13:24:59,42.805,6.029,4330,1995,192.191,58.784,13.295
2019-06-20T13:27:59,42.805,6.029,4330,1995,192.263,58.806,13.295
2019-06-20T13:30:59,42.805,6.029,4330,1995,192.527,58.889,13.297
2019-06-20T13:33:59,42.805,6.029,4330,1995,192.569,58.901,13.296
2019-06-20T13:36:59,42.805,6.029,4330,1995,192.416,58.855,13.296
2019-06-20T13:39:59,42.805,6.029,4330,1995,192.724,58.950,13.298
2019-06-20T13:42:59,42.805,6.029,4330,1995,192.604,58.914,13.298
2019-06-20T13:45:59,42.805,6.029,4330,1995,192.580,58.906,13.297
2019-06-20T13:48:59,42.805,6.029,4330,1995,192.764,58.960,13.296
2019-06-20T13:51:59,42.805,6.029,4330,1995,192.793,58.971,13.297
2019-06-20T13:54:59,42.805,6.029,4330,1995,192.647,58.926,13.297
2019-06-20T13:57:58,42.805,6.029,4330,1995,192.838,58.979,13.293
2019-06-20T14:00:58,42.805,6.029,4330,1995,192.891,58.999,13.296
2019-06-20T14:03:58,42.805,6.029,4330,1995,193.012,59.033,13.293
2019-06-20T14:06:58,42.805,6.029,4330,1995,193.011,59.035,13.295
2019-06-20T14:09:58,42.805,6.029,4330,1995,193.232,59.099,13.292
2019-06-20T14:12:58,42.805,6.029,4330,1995,193.247,59.105,13.294
2019-06-20T14:15:58,42.805,6.029,4330,1995,193.110,59.064,13.294
2019-06-20T14:18:58,42.805,6.029,4330,1995,193.030,59.040,13.295
2019-06-20T14:21:58,42.805,6.029,4330,1995,192.914,59.003,13.294
2019-06-20T14:24:58,42.805,6.029,4330,1995,192.686,58.933,13.293
2019-06-20T14:27:58,42.805,6.029,4330,1995,192.587,58.902,13.293
2019-06-20T14:30:58,42.805,6.029,4330,1995,192.946,59.013,13.293
2019-06-20T14:33:58,42.805,6.029,4330,1995,193.019,59.034,13.292
2019-06-20T14:36:58,42.805,6.029,4330,1995,193.091,59.055,13.292
2019-06-20T14:39:58,42.805,6.029,4330,1995,193.062,59.046,13.292
2019-06-20T14:42:58,42.805,6.029,4330,1995,193.050,59.042,13.291
2019-06-20T14:45:58,42.805,6.029,4330,1995,193.035,59.037,13.291
2019-06-20T14:48:58,42.805,6.029,4330,1995,193.178,59.080,13.291
2019-06-20T14:51:58,42.805,6.029,4330,1995,193.112,59.060,13.290
2019-06-20T14:54:58,42.805,6.029,4330,1995,193.305,59.120,13.291
2019-06-20T14:57:58,42.805,6.029,4330,1995,193.195,59.088,13.293
2019-06-20T15:00:58,42.805,6.029,4330,1995,193.115,59.063,13.292
2019-06-20T15:03:58,42.805,6.029,4330,1995,193.338,59.131,13.292
2019-06-20T15:06:58,42.805,6.029,4330,1995,193.219,59.097,13.294
2019-06-20T15:09:58,42.805,6.029,4330,1995,193.097,59.058,13.292
2019-06-20T15:12:58,42.805,6.029,4330,1995,193.273,59.110,13.291
2019-06-20T15:15:58,42.805,6.029,4330,1995,193.195,59.086,13.291
2019-06-20T15:18:58,42.805,6.029,4330,1995,193.218,59.094,13.292
2019-06-20T15:21:58,42.805,6.029,4330,1995,192.874,58.992,13.294
2019-06-20T15:24:58,42.805,6.029,4330,1995,192.950,59.013,13.293
2019-06-20T15:30:58,42.805,6.029,4330,1995,193.085,59.058,13.295
2019-06-20T15:33:58,42.805,6.029,4330,1995,192.823,58.974,13.292
2019-06-20T15:36:58,42.805,6.029,4330,1995,192.747,58.950,13.292
2019-06-20T15:39:58,42.805,6.029,4330,1995,192.941,59.009,13.292
2019-06-20T15:42:58,42.805,6.029,4330,1995,192.997,59.027,13.292
2019-06-20T15:45:58,42.805,6.029,4330,1995,193.047,59.041,13.291
2019-06-20T15:48:58,42.805,6.029,4330,1995,193.084,59.052,13.291
2019-06-20T15:51:58,42.805,6.029,4330,1995,193.033,59.038,13.292
2019-06-20T15:54:58,42.805,6.029,4330,1995,192.990,59.024,13.292
2019-06-20T15:57:58,42.805,6.029,4330,1995,192.817,58.972,13.292
2019-06-20T16:00:58,42.805,6.029,4330,1995,192.810,58.971,13.293
2019-06-20T16:03:58,42.805,6.029,4330,1995,192.825,58.975,13.293
2019-06-20T16:06:58,42.805,6.029,4330,1995,192.791,58.964,13.292
2019-06-20T16:09:58,42.805,6.029,4330,1995,192.673,58.927,13.291
2019-06-20T16:12:58,42.805,6.029,4330,1995,192.837,58.978,13.292
2019-06-20T16:15:58,42.805,6.029,4330,1995,192.838,58.979,13.293
2019-06-20T16:18:58,42.805,6.029,4330,1995,192.732,58.945,13.292
2019-06-20T16:21:58,42.805,6.029,4330,1995,192.939,59.008,13.292
2019-06-20T16:24:58,42.805,6.029,4330,1995,192.692,58.935,13.294
2019-06-20T16:27:58,42.805,6.029,4330,1995,192.679,58.929,13.292
2019-06-20T16:30:58,42.805,6.029,4330,1995,192.592,58.903,13.293
2019-06-20T16:33:58,42.805,6.029,4330,1995,192.573,58.898,13.293
2019-06-20T16:36:58,42.805,6.029,4330,1995,192.712,58.940,13.292
2019-06-20T16:39:58,42.805,6.029,4330,1995,192.819,58.973,13.293
2019-06-20T16:42:58,42.805,6.029,4330,1995,192.774,58.964,13.296
2019-06-20T16:45:58,42.805,6.029,4330,1995,192.706,58.941,13.295
2019-06-20T16:48:58,42.805,6.029,4330,1995,192.875,58.990,13.293
2019-06-20T16:51:58,42.805,6.029,4330,1995,192.659,58.928,13.296
2019-06-20T16:54:58,42.805,6.029,4330,1995,192.621,58.913,13.294
2019-06-20T16:57:58,42.805,6.029,4330,1995,192.633,58.918,13.294
2019-06-20T17:00:58,42.805,6.029,4330,1995,192.504,58.880,13.296
2019-06-20T17:03:58,42.805,6.029,4330,1995,192.421,58.858,13.298
2019-06-20T17:06:58,42.805,6.029,4330,1995,192.361,58.839,13.298
2019-06-20T17:09:58,42.805,6.029,4330,1995,192.188,58.783,13.295
2019-06-20T17:12:58,42.805,6.029,4330,1995,192.274,58.811,13.297
2019-06-20T17:15:58,42.805,6.029,4330,1995,192.048,58.741,13.296
2019-06-20T17:18:58,42.805,6.029,4330,1995,192.193,58.786,13.296
2019-06-20T17:21:58,42.805,6.029,4330,1995,192.284,58.814,13.296
2019-06-20T17:24:58,42.805,6.029,4330,1995,192.224,58.795,13.296
2019-06-20T17:27:58,42.805,6.029,4330,1995,192.362,58.834,13.294
2019-06-20T17:30:58,42.805,6.029,4330,1995,192.401,58.848,13.295
2019-06-20T17:33:58,42.805,6.029,4330,1995,192.231,58.801,13.299
2019-06-20T17:36:58,42.805,6.029,4330,1995,192.205,58.788,13.295
2019-06-20T17:39:58,42.805,6.029,4330,1995,192.313,58.820,13.294
2019-06-20T17:42:58,42.805,6.029,4330,1995,192.314,58.822,13.296
2019-06-20T17:45:58,42.805,6.029,4330,1995,192.135,58.765,13.294
2019-06-20T17:48:58,42.805,6.029,4330,1995,192.133,58.766,13.295
2019-06-20T17:51:58,42.805,6.029,4330,1995,192.209,58.789,13.295
2019-06-20T17:54:58,42.805,6.029,4330,1995,192.102,58.757,13.295
2019-06-20T17:57:58,42.805,6.029,4330,1995,192.200,58.785,13.294
2019-06-20T18:00:58,42.805,6.029,4330,1995,192.172,58.777,13.294
2019-06-20T18:06:58,42.805,6.029,4330,1995,192.231,58.790,13.290
2019-06-20T18:09:58,42.805,6.029,4330,1995,192.178,58.779,13.294
2019-06-20T18:12:58,42.805,6.029,4330,1995,192.070,58.748,13.296
2019-06-20T18:15:58,42.805,6.029,4330,1995,192.121,58.763,13.295
2019-06-20T18:18:58,42.805,6.029,4330,1995,192.043,58.739,13.296
2019-06-20T18:21:58,42.805,6.029,4330,1995,192.128,58.764,13.295
2019-06-20T18:24:58,42.805,6.029,4330,1995,192.262,58.807,13.296
2019-06-20T18:27:58,42.805,6.029,4330,1995,192.182,58.784,13.297
2019-06-20T18:30:58,42.805,6.029,4330,1995,192.273,58.809,13.295
2019-06-20T18:33:58,42.805,6.029,4330,1995,192.302,58.818,13.295